This is the latest recevied weather packets stored in our database for station/object DL6MAA-11. If no packets are shown the sender has not sent any weather packets the latest 10 day(s).
| Time | Temp. | Humidity | Pressure | Rain* | Wind** | Luminosity | Snow |
|---|---|---|---|---|---|---|---|
| 1778071617 | 16.11° C | 61% | 1002.3 hPa | 0 mm | - | 62 W/m² | - |
| 1778071316 | 16.11° C | 60% | 1002.3 hPa | 0 mm | - | 81 W/m² | - |
| 1778071021 | 16.11° C | 60% | 1002.3 hPa | 0 mm | - | 95 W/m² | - |
| 1778070719 | 16.67° C | 59% | 1002.3 hPa | 0 mm | - | 113 W/m² | - |
| 1778070410 | 16.67° C | 59% | 1002.3 hPa | 0 mm | - | 125 W/m² | - |
| 1778070119 | 16.67° C | 59% | 1002.3 hPa | 0 mm | - | 130 W/m² | - |
| 1778069824 | 16.67° C | 59% | 1002.3 hPa | 0 mm | - | 146 W/m² | - |
| 1778069515 | 16.67° C | 58% | 1002.2 hPa | 0 mm | - | 163 W/m² | - |
| 1778069222 | 16.67° C | 57% | 1002.2 hPa | 0 mm | - | 167 W/m² | - |
| 1778068904 | 16.67° C | 57% | 1002.2 hPa | 0 mm | - | 151 W/m² | - |
| 1778068612 | 16.67° C | 58% | 1002.2 hPa | 0 mm | - | 171 W/m² | - |
| 1778068314 | 17.22° C | 57% | 1002.2 hPa | 0 mm | - | 188 W/m² | - |
| 1778068013 | 16.67° C | 58% | 1002.2 hPa | 0 mm | - | 207 W/m² | - |
| 1778067722 | 16.67° C | 57% | 1002.4 hPa | 0 mm | - | 185 W/m² | - |
| 1778067425 | 16.67° C | 58% | 1002.4 hPa | 0 mm | - | 179 W/m² | - |
| 1778067126 | 16.67° C | 58% | 1002.4 hPa | 0 mm | - | 176 W/m² | - |
| 1778066811 | 16.67° C | 57% | 1003.4 hPa | 0 mm | - | 204 W/m² | - |
| 1778066520 | 16.67° C | 58% | 1003.4 hPa | 0 mm | - | 195 W/m² | - |
| 1778066208 | 17.22° C | 55% | 1003.4 hPa | 0 mm | - | 183 W/m² | - |
| 1778065924 | 17.78° C | 55% | 1003.1 hPa | 0 mm | - | 207 W/m² | - |
| 1778065610 | 17.78° C | 56% | 1003.1 hPa | 0 mm | - | 348 W/m² | - |
| 1778065314 | 17.22° C | 56% | 1003.1 hPa | 0 mm | - | 329 W/m² | - |
| 1778065015 | 17.22° C | 54% | 1003.4 hPa | 0 mm | - | 336 W/m² | - |
| 1778064716 | 17.22° C | 56% | 1003.4 hPa | 0 mm | - | 274 W/m² | - |
| 1778064422 | 17.78° C | 55% | 1003.4 hPa | 0 mm | - | 323 W/m² | - |
* Rain since midnight (hover to see other rain measurements)
** Current wind speed in m/s (hover to see current wind gust speed)